,,Stat1,,Stat2,,Stat3,,Stat4,,W1dAve1m,,Wind1
time,status,PR1M_SUM,status,RH1M_AVG,status,SR1M_AVG,status,TA1M_AVG,status,W1dAve1m,status,W1sAve1m
2000-03-12, 00:01:00,VALID,0,VALID,96.7793,VALID,-0.101885,VALID,17.6159,VALID,56,VALID,0
2000-03-12, 00:02:00,VALID,0,VALID,97.3986,VALID,-0.101885,VALID,17.7324,VALID,45,VALID,0.046875
2000-03-12, 00:03:00,VALID,0,VALID,97.5168,VALID,-0.101885,VALID,17.8262,VALID,26,VALID,0.322368
2000-03-12, 00:04:01,VALID,0,VALID,97.1976,VALID,-0.101885,VALID,17.8809,VALID,28,VALID,0
2000-03-12, 00:05:00,VALID,0,VALID,96.736,VALID,-0.118866,VALID,17.8903,VALID,28,VALID,0
2000-03-12, 00:06:00,VALID,0,VALID,96.3813,VALID,-0.101885,VALID,17.9,VALID,28,VALID,0
2000-03-12, 00:07:00,VALID,0,VALID,96.1956,VALID,-0.101885,VALID,17.9224,VALID,28,VALID,0
2000-03-12, 00:08:00,VALID,0,VALID,96.2414,VALID,-0.0849042,VALID,17.9837,VALID,64,VALID,0
2000-03-12, 00:09:00,VALID,0,VALID,95.4339,VALID,-0.0849042,VALID,17.9904,VALID,137,VALID,0.217483
2000-03-12, 00:10:00,VALID,0,VALID,94.7371,VALID,-0.101885,VALID,17.939,VALID,154,VALID,0.557292
2000-03-12, 00:11:00,VALID,0,VALID,94.5018,VALID,-0.118866,VALID,17.8456,VALID,161,VALID,0.519003
2000-03-12, 00:12:00,VALID,0,VALID,94.1191,VALID,-0.118866,VALID,17.7455,VALID,160,VALID,0.647204
2000-03-12, 00:13:01,VALID,0,VALID,94.9545,VALID,-0.0679233,VALID,17.6514,VALID,151,VALID,0.799753
2000-03-12, 00:14:00,VALID,0,VALID,95.467,VALID,0.0169808,VALID,17.5475,VALID,151,VALID,0.625
2000-03-12, 00:15:01,VALID,0,VALID,96.5415,VALID,0,VALID,17.5109,VALID,152,VALID,0.410823
2000-03-12, 00:16:00,VALID,0,VALID,96.2554,VALID,0.0169808,VALID,17.4693,VALID,155,VALID,0.233984
2000-03-12, 00:17:00,VALID,0,VALID,95.7696,VALID,0.0169808,VALID,17.3983,VALID,158,VALID,0.0470861
2000-03-12, 00:18:00,VALID,0,VALID,95.598,VALID,0,VALID,17.3564,VALID,175,VALID,0.36899
2000-03-12, 00:19:00,VALID,0,VALID,96.0901,VALID,0,VALID,17.3303,VALID,191,VALID,0.455181
2000-03-12, 00:20:00,VALID,0,VALID,97.0527,VALID,-0.0169808,VALID,17.3725,VALID,204,VALID,0.40957
2000-03-12, 00:21:00,VALID,0,VALID,97.4278,VALID,0,VALID,17.4272,VALID,204,VALID,0.358507
2000-03-12, 00:22:00,VALID,0,VALID,97.4176,VALID,0,VALID,17.4536,VALID,204,VALID,0.392969
2000-03-12, 00:23:00,VALID,0,VALID,96.8696,VALID,-0.0339617,VALID,17.4115,VALID,209,VALID,0.499414
2000-03-12, 00:24:00,VALID,0,VALID,96.6534,VALID,0,VALID,17.3628,VALID,214,VALID,0.323396
2000-03-12, 00:25:00,VALID,0,VALID,97.012,VALID,0,VALID,17.3663,VALID,216,VALID,0.5002
2000-03-12, 00:26:01,VALID,0,VALID,97.4354,VALID,0,VALID,17.3921,VALID,216,VALID,0.502604
2000-03-12, 00:27:00,VALID,0,VALID,97.2358,VALID,0.0169808,VALID,17.3923,VALID,216,VALID,0.474609
2000-03-12, 00:28:00,VALID,0,VALID,97.0794,VALID,0.0169808,VALID,17.3635,VALID,211,VALID,0.0179228
2000-03-12, 00:29:00,VALID,0,VALID,97.2739,VALID,-0.0169808,VALID,17.3641,VALID,198,VALID,0
2000-03-12, 00:30:00,VALID,0,VALID,97.5244,VALID,-0.0509425,VALID,17.3573,VALID,186,VALID,0
2000-03-12, 00:31:00,VALID,0,VALID,97.0272,VALID,-0.0169808,VALID,17.2927,VALID,170,VALID,0
2000-03-12, 00:32:00,VALID,0,VALID,96.408,VALID,-0.0679233,VALID,17.2253,VALID,169,VALID,0
2000-03-12, 00:33:00,VALID,0,VALID,96.9306,VALID,-0.101885,VALID,17.2342,VALID,169,VALID,0
2000-03-12, 00:34:00,VALID,0,VALID,96.984,VALID,-0.0339617,VALID,17.2286,VALID,169,VALID,0
2000-03-12, 00:35:00,VALID,0,VALID,96.7132,VALID,-0.0679233,VALID,17.2023,VALID,169,VALID,0
2000-03-12, 00:36:00,VALID,0,VALID,96.0163,VALID,-0.0509425,VALID,17.1317,VALID,169,VALID,0
2000-03-12, 00:37:01,VALID,0,VALID,96.2719,VALID,-0.0679233,VALID,17.1218,VALID,169,VALID,0
2000-03-12, 00:38:00,VALID,0,VALID,96.867,VALID,-0.0509425,VALID,17.1606,VALID,169,VALID,0
2000-03-12, 00:39:00,VALID,0,VALID,96.1982,VALID,-0.0509425,VALID,17.1315,VALID,146,VALID,0
2000-03-12, 00:40:00,VALID,0,VALID,95.762,VALID,-0.0169808,VALID,17.0736,VALID,122,VALID,0.357088
2000-03-12, 00:41:00,VALID,0,VALID,96.7297,VALID,-0.0169808,VALID,17.0861,VALID,111,VALID,0.799805
2000-03-12, 00:42:00,VALID,0,VALID,97.2752,VALID,0,VALID,17.1085,VALID,110,VALID,0.566406
2000-03-12, 00:43:00,VALID,0,VALID,97.658,VALID,-0.0339617,VALID,17.1703,VALID,118,VALID,0.316211
2000-03-12, 00:44:00,VALID,0,VALID,97.9288,VALID,-0.0169808,VALID,17.2441,VALID,119,VALID,0.481908
2000-03-12, 00:45:00,VALID,0,VALID,98.0038,VALID,-0.0169808,VALID,17.3058,VALID,107,VALID,0.54413
2000-03-12, 00:46:00,VALID,0,VALID,97.7304,VALID,-0.0169808,VALID,17.283,VALID,105,VALID,0.325721
2000-03-12, 00:47:00,VALID,0,VALID,96.6305,VALID,-0.0169808,VALID,17.1608,VALID,97,VALID,0
2000-03-12, 00:48:01,VALID,0,VALID,96.3686,VALID,-0.0339617,VALID,17.0898,VALID,91,VALID,0.000411184
2000-03-12, 00:49:00,VALID,0,VALID,96.7322,VALID,-0.0169808,VALID,17.0541,VALID,70,VALID,0.701275
2000-03-12, 00:50:00,VALID,0,VALID,97.2065,VALID,-0.0169808,VALID,17.0801,VALID,50,VALID,0.677148
2000-03-12, 00:51:00,VALID,0,VALID,97.6198,VALID,-0.0509425,VALID,17.115,VALID,33,VALID,0.168826
2000-03-12, 00:52:00,VALID,0,VALID,97.7838,VALID,-0.0169808,VALID,17.1509,VALID,345,VALID,0.312109
2000-03-12, 00:53:00,VALID,0,VALID,97.9453,VALID,-0.0509425,VALID,17.2058,VALID,312,VALID,0.0529983
2000-03-12, 00:54:00,VALID,0,VALID,97.8843,VALID,0,VALID,17.1989,VALID,287,VALID,0.363982
2000-03-12, 00:55:00,VALID,0,VALID,98.0903,VALID,-0.0509425,VALID,17.2705,VALID,295,VALID,0.641036
2000-03-12, 00:56:00,VALID,0,VALID,98.0878,VALID,-0.0509425,VALID,17.2832,VALID,290,VALID,0.412305
2000-03-12, 00:57:00,VALID,0,VALID,97.9746,VALID,-0.0509425,VALID,17.2609,VALID,306,VALID,0.566189
2000-03-12, 00:58:00,VALID,0,VALID,98.2721,VALID,-0.0509425,VALID,17.3379,VALID,324,VALID,0.599219
2000-03-12, 00:59:00,VALID,0,VALID,98.2505,VALID,-0.0679233,VALID,17.3448,VALID,356,VALID,0.149414
2000-03-12, 01:00:00,VALID,0,VALID,96.984,VALID,-0.0169808,VALID,17.1188,VALID,106,VALID,0.652344
2000-03-12, 01:01:00,VALID,0,VALID,96.8479,VALID,0,VALID,17.0573,VALID,97,VALID,0.219752
2000-03-12, 01:02:00,VALID,0,VALID,97.0984,VALID,-0.0169808,VALID,17.0506,VALID,16,VALID,0
2000-03-12, 01:03:00,VALID,0,VALID,97.4392,VALID,-0.0339617,VALID,17.1059,VALID,289,VALID,0
2000-03-12, 01:04:00,VALID,0,VALID,97.3947,VALID,-0.0679233,VALID,17.1223,VALID,284,VALID,0
2000-03-12, 01:05:00,VALID,0,VALID,96.497,VALID,-0.0509425,VALID,17.048,VALID,275,VALID,0
2000-03-12, 01:06:00,VALID,0,VALID,96.4194,VALID,-0.0339617,VALID,17.0282,VALID,275,VALID,0
2000-03-12, 01:07:00,VALID,0,VALID,96.3329,VALID,-0.0509425,VALID,17.0026,VALID,275,VALID,0
2000-03-12, 01:08:00,VALID,0,VALID,95.8993,VALID,-0.0509425,VALID,16.9575,VALID,241,VALID,0
2000-03-12, 01:09:01,VALID,0,VALID,95.7874,VALID,-0.0849042,VALID,16.9024,VALID,118,VALID,0.18391
2000-03-12, 01:10:00,VALID,0,VALID,96.7831,VALID,-0.0509425,VALID,16.9575,VALID,74,VALID,0.901843
2000-03-12, 01:11:00,VALID,0,VALID,97.2599,VALID,-0.0679233,VALID,17.0285,VALID,355,VALID,0.689887
2000-03-12, 01:12:00,VALID,0,VALID,98.0229,VALID,-0.0339617,VALID,17.1705,VALID,325,VALID,0.547697
2000-03-12, 01:13:00,VALID,0,VALID,98.2925,VALID,-0.0509425,VALID,17.2385,VALID,327,VALID,0.479235
2000-03-12, 01:14:00,VALID,0,VALID,98.4387,VALID,-0.0679233,VALID,17.2966,VALID,321,VALID,0.358398
2000-03-12, 01:15:00,VALID,0,VALID,98.3726,VALID,-0.0509425,VALID,17.2832,VALID,29,VALID,0.373972
2000-03-12, 01:16:00,VALID,0,VALID,97.8652,VALID,-0.0679233,VALID,17.1735,VALID,72,VALID,0.854802
2000-03-12, 01:17:00,VALID,0,VALID,97.4405,VALID,-0.0509425,VALID,17.1703,VALID,86,VALID,0.647852
2000-03-12, 01:18:00,VALID,0,VALID,96.6699,VALID,-0.0509425,VALID,17.1642,VALID,55,VALID,0.234581
2000-03-12, 01:19:00,VALID,0,VALID,96.469,VALID,-0.101885,VALID,17.1802,VALID,38,VALID,0.467773
2000-03-12, 01:20:00,VALID,0,VALID,96.0621,VALID,-0.0509425,VALID,17.1898,VALID,61,VALID,0.110814
2000-03-12, 01:21:00,VALID,0,VALID,94.9698,VALID,-0.0849042,VALID,17.1513,VALID,97,VALID,0
2000-03-12, 01:22:00,VALID,0,VALID,94.5769,VALID,-0.0339617,VALID,17.1031,VALID,113,VALID,0
2000-03-12, 01:23:00,VALID,0,VALID,94.5425,VALID,-0.0679233,VALID,17.0513,VALID,110,VALID,0
2000-03-12, 01:24:00,VALID,0,VALID,95.1097,VALID,-0.0679233,VALID,17.0287,VALID,104,VALID,0
2000-03-12, 01:25:00,VALID,0,VALID,95.0397,VALID,-0.0509425,VALID,16.9867,VALID,102,VALID,0
2000-03-12, 01:26:00,VALID,0,VALID,95.5293,VALID,-0.0849042,VALID,16.974,VALID,102,VALID,0
2000-03-12, 01:27:00,VALID,0,VALID,95.6908,VALID,-0.0849042,VALID,17.0001,VALID,100,VALID,0
2000-03-12, 01:28:00,VALID,0,VALID,95.4619,VALID,-0.0679233,VALID,17.0379,VALID,100,VALID,0
2000-03-12, 01:29:00,VALID,0,VALID,95.1135,VALID,0.0509425,VALID,17.0465,VALID,100,VALID,0
2000-03-12, 01:30:00,VALID,0,VALID,94.7028,VALID,0.0849042,VALID,17.0564,VALID,100,VALID,0
2000-03-12, 01:31:00,VALID,0,VALID,93.0013,VALID,0.0679233,VALID,17.005,VALID,3,VALID,0
2000-03-12, 01:32:00,VALID,0,VALID,93.2251,VALID,0.0509425,VALID,16.9207,VALID,329,VALID,0
2000-03-12, 01:33:00,VALID,0,VALID,94.6824,VALID,0.0849042,VALID,16.9499,VALID,314,VALID,0
2000-03-12, 01:34:00,VALID,0,VALID,95.9146,VALID,0.0849042,VALID,17.027,VALID,310,VALID,0
2000-03-12, 01:35:00,VALID,0,VALID,95.6272,VALID,0.0679233,VALID,17.0756,VALID,311,VALID,0
2000-03-12, 01:36:00,VALID,0,VALID,95.4314,VALID,0.0849042,VALID,17.0726,VALID,303,VALID,0
2000-03-12, 01:37:00,VALID,0,VALID,95.6755,VALID,0.101885,VALID,17.095,VALID,300,VALID,0
2000-03-12, 01:38:00,VALID,0,VALID,96.1982,VALID,0.0849042,VALID,17.127,VALID,301,VALID,0
2000-03-12, 01:39:00,VALID,0,VALID,95.3373,VALID,0.0849042,VALID,17.1337,VALID,309,VALID,0
2000-03-12, 01:40:00,VALID,0,VALID,96.1587,VALID,0.101885,VALID,17.2333,VALID,308,VALID,0
2000-03-12, 01:41:00,VALID,0,VALID,95.9108,VALID,0.0849042,VALID,17.2819,VALID,301,VALID,0
2000-03-12, 01:42:01,VALID,0,VALID,95.4746,VALID,0.0679233,VALID,17.337,VALID,315,VALID,0
2000-03-12, 01:43:00,VALID,0,VALID,95.6819,VALID,0.0679233,VALID,17.4082,VALID,308,VALID,0
2000-03-12, 01:44:00,VALID,0,VALID,93.964,VALID,-0.0339617,VALID,17.4517,VALID,309,VALID,0
2000-03-12, 01:45:00,VALID,0,VALID,92.0019,VALID,-0.0339617,VALID,17.4386,VALID,297,VALID,0
2000-03-12, 01:46:00,VALID,0,VALID,92.4037,VALID,0,VALID,17.4354,VALID,211,VALID,0
2000-03-12, 01:47:00,VALID,0,VALID,92.4876,VALID,-0.0169808,VALID,17.419,VALID,197,VALID,0
2000-03-12, 01:48:00,VALID,0,VALID,92.8386,VALID,-0.0339617,VALID,17.4063,VALID,142,VALID,0
2000-03-12, 01:49:00,VALID,0,VALID,92.5308,VALID,0,VALID,17.3932,VALID,125,VALID,0
2000-03-12, 01:50:00,VALID,0,VALID,92.3961,VALID,-0.0509425,VALID,17.3803,VALID,137,VALID,0.408398
2000-03-12, 01:51:00,VALID,0,VALID,93.5952,VALID,0,VALID,17.4031,VALID,197,VALID,0.222039
2000-03-12, 01:52:00,VALID,0,VALID,92.6504,VALID,-0.0339617,VALID,17.3512,VALID,244,VALID,0.135861
2000-03-12, 01:53:00,VALID,0,VALID,93.4706,VALID,-0.0169808,VALID,17.3416,VALID,239,VALID,0.288477
2000-03-12, 01:54:00,VALID,0,VALID,92.7356,VALID,-0.0339617,VALID,17.3157,VALID,234,VALID,0.35588
2000-03-12, 01:55:00,VALID,0,VALID,91.9802,VALID,-0.0339617,VALID,17.2544,VALID,231,VALID,0.0109375
2000-03-12, 01:56:00,VALID,0,VALID,91.2008,VALID,0,VALID,17.1707,VALID,221,VALID,0
2000-03-12, 01:57:00,VALID,0,VALID,90.3818,VALID,0,VALID,17.0347,VALID,183,VALID,0
2000-03-12, 01:58:00,VALID,0,VALID,92.5499,VALID,-0.0169808,VALID,16.9411,VALID,188,VALID,0
2000-03-12, 01:59:00,VALID,0,VALID,93.9678,VALID,-0.0169808,VALID,16.8798,VALID,206,VALID,0
2000-03-12, 02:00:00,VALID,0,VALID,94.1076,VALID,-0.0169808,VALID,16.7991,VALID,222,VALID,0
2000-03-12, 02:01:00,VALID,0,VALID,94.3454,VALID,0,VALID,16.7414,VALID,219,VALID,0.643709
2000-03-12, 02:02:00,VALID,0,VALID,94.7816,VALID,-0.0509425,VALID,16.667,VALID,213,VALID,0.359766
2000-03-12, 02:03:00,VALID,0,VALID,95.996,VALID,-0.0509425,VALID,16.6638,VALID,225,VALID,0.379954
2000-03-12, 02:04:00,VALID,0,VALID,95.8281,VALID,-0.0339617,VALID,16.6377,VALID,242,VALID,0.601953
2000-03-12, 02:05:00,VALID,0,VALID,95.6501,VALID,-0.0169808,VALID,16.6061,VALID,227,VALID,0.486698
2000-03-12, 02:06:00,VALID,0,VALID,95.5649,VALID,-0.0169808,VALID,16.5609,VALID,223,VALID,0.186298
2000-03-12, 02:07:00,VALID,0,VALID,95.7073,VALID,-0.0169808,VALID,16.528,VALID,215,VALID,0
2000-03-12, 02:08:00,VALID,0,VALID,94.7892,VALID,-0.0169808,VALID,16.4798,VALID,150,VALID,0.346289
2000-03-12, 02:09:00,VALID,0,VALID,94.2488,VALID,0,VALID,16.3576,VALID,115,VALID,0.476563
2000-03-12, 02:10:00,VALID,0,VALID,94.8884,VALID,0,VALID,16.2475,VALID,114,VALID,0.337695
2000-03-12, 02:11:00,VALID,0,VALID,96.3914,VALID,-0.0169808,VALID,16.2765,VALID,114,VALID,0.298047
2000-03-12, 02:12:00,VALID,0,VALID,96.5262,VALID,0,VALID,16.2511,VALID,119,VALID,0.160362
2000-03-12, 02:13:00,VALID,0,VALID,97.5143,VALID,-0.0169808,VALID,16.3253,VALID,129,VALID,0
2000-03-12, 02:14:00,VALID,0,VALID,97.5689,VALID,0,VALID,16.3572,VALID,168,VALID,0.333734
2000-03-12, 02:15:00,VALID,0,VALID,97.4367,VALID,-0.0169808,VALID,16.3512,VALID,168,VALID,0.478125
2000-03-12, 02:16:00,VALID,0,VALID,97.6185,VALID,-0.0339617,VALID,16.3413,VALID,166,VALID,0.617647
2000-03-12, 02:17:00,VALID,0,VALID,97.9097,VALID,-0.0169808,VALID,16.3864,VALID,170,VALID,0.542558
2000-03-12, 02:18:00,VALID,0,VALID,97.7673,VALID,-0.0169808,VALID,16.3608,VALID,196,VALID,0.313684
2000-03-12, 02:19:00,VALID,0,VALID,97.6287,VALID,0,VALID,16.3286,VALID,222,VALID,0.487542
2000-03-12, 02:20:00,VALID,0,VALID,97.3502,VALID,-0.0339617,VALID,16.28,VALID,227,VALID,0.533784
2000-03-12, 02:21:00,VALID,0,VALID,97.3299,VALID,-0.0169808,VALID,16.2545,VALID,229,VALID,0.434333
2000-03-12, 02:22:00,VALID,0,VALID,97.5283,VALID,-0.0169808,VALID,16.264,VALID,225,VALID,0.202324
2000-03-12, 02:23:00,VALID,0,VALID,97.5867,VALID,0.0169808,VALID,16.2673,VALID,219,VALID,0.465712
2000-03-12, 02:24:00,VALID,0,VALID,97.7635,VALID,0.0849042,VALID,16.2985,VALID,214,VALID,0.429276
2000-03-12, 02:25:00,VALID,0,VALID,97.7292,VALID,0.0509425,VALID,16.3052,VALID,226,VALID,0.725329
2000-03-12, 02:26:00,VALID,0,VALID,98.1641,VALID,0.0849042,VALID,16.3596,VALID,228,VALID,0.862891
2000-03-12, 02:27:00,VALID,0,VALID,98.4756,VALID,0.101885,VALID,16.4562,VALID,221,VALID,0.679276
2000-03-12, 02:28:00,VALID,0,VALID,98.4718,VALID,0.0849042,VALID,16.5016,VALID,221,VALID,0.339748
2000-03-12, 02:29:00,VALID,0,VALID,98.3879,VALID,-0.0169808,VALID,16.5123,VALID,216,VALID,0.129688
2000-03-12, 02:30:00,VALID,0,VALID,98.0522,VALID,-0.0169808,VALID,16.4774,VALID,209,VALID,0.0910773
2000-03-12, 02:31:00,VALID,0,VALID,97.7292,VALID,-0.0339617,VALID,16.3862,VALID,235,VALID,0.733789
2000-03-12, 02:32:00,VALID,0,VALID,97.9492,VALID,-0.0339617,VALID,16.3869,VALID,233,VALID,1.21114
2000-03-12, 02:33:00,VALID,0,VALID,98.3217,VALID,-0.0169808,VALID,16.4447,VALID,225,VALID,1.22044
2000-03-12, 02:34:00,VALID,0,VALID,98.5265,VALID,-0.0679233,VALID,16.5097,VALID,220,VALID,1.248
2000-03-12, 02:35:00,VALID,0,VALID,98.6422,VALID,-0.0169808,VALID,16.5514,VALID,217,VALID,0.9394
2000-03-12, 02:36:00,VALID,0,VALID,98.7172,VALID,-0.0509425,VALID,16.6031,VALID,209,VALID,0.886308
2000-03-12, 02:37:01,VALID,0,VALID,98.6613,VALID,0,VALID,16.6156,VALID,197,VALID,1.19346
2000-03-12, 02:38:00,VALID,0,VALID,98.5455,VALID,-0.0509425,VALID,16.619,VALID,202,VALID,1.18086
2000-03-12, 02:39:00,VALID,0,VALID,98.5303,VALID,-0.0509425,VALID,16.6252,VALID,198,VALID,1.19322
2000-03-12, 02:40:00,VALID,0,VALID,98.5405,VALID,-0.0339617,VALID,16.6485,VALID,196,VALID,1.2002
2000-03-12, 02:41:00,VALID,0,VALID,98.7465,VALID,-0.0339617,VALID,16.6937,VALID,191,VALID,1.21917
2000-03-12, 02:42:00,VALID,0,VALID,98.7299,VALID,-0.0339617,VALID,16.7292,VALID,190,VALID,0.970152
2000-03-12, 02:43:00,VALID,0,VALID,98.8762,VALID,-0.0169808,VALID,16.7937,VALID,183,VALID,0.930715
2000-03-12, 02:44:00,VALID,0,VALID,98.8062,VALID,-0.0679233,VALID,16.8322,VALID,184,VALID,0.851172
2000-03-12, 02:45:00,VALID,0,VALID,98.6587,VALID,-0.0339617,VALID,16.8221,VALID,199,VALID,0.840061
2000-03-12, 02:46:00,VALID,0,VALID,98.5697,VALID,-0.0509425,VALID,16.8225,VALID,183,VALID,0.929883
2000-03-12, 02:47:00,VALID,0,VALID,98.2289,VALID,-0.0509425,VALID,16.784,VALID,162,VALID,0.889648
2000-03-12, 02:48:01,VALID,0,VALID,97.4825,VALID,-0.0169808,VALID,16.6614,VALID,151,VALID,0.953331
2000-03-12, 02:49:00,VALID,0,VALID,96.5593,VALID,-0.0509425,VALID,16.5127,VALID,139,VALID,1.04046
2000-03-12, 02:50:00,VALID,0,VALID,97.1811,VALID,-0.0169808,VALID,16.5,VALID,138,VALID,1.07552
2000-03-12, 02:51:00,VALID,0,VALID,97.9644,VALID,-0.0169808,VALID,16.5583,VALID,151,VALID,1.0041
2000-03-12, 02:52:00,VALID,0,VALID,98.4387,VALID,-0.0679233,VALID,16.6384,VALID,166,VALID,1.19462
2000-03-12, 02:53:00,VALID,0,VALID,98.4794,VALID,-0.0169808,VALID,16.6646,VALID,172,VALID,1.1507
2000-03-12, 02:54:00,VALID,0,VALID,98.557,VALID,0,VALID,16.6999,VALID,184,VALID,1.07292
2000-03-12, 02:55:00,VALID,0,VALID,98.6663,VALID,-0.0339617,VALID,16.7483,VALID,200,VALID,0.99451
2000-03-12, 02:56:00,VALID,0,VALID,98.6727,VALID,-0.0339617,VALID,16.7903,VALID,181,VALID,0.95777
2000-03-12, 02:57:00,VALID,0,VALID,98.6524,VALID,-0.0169808,VALID,16.8256,VALID,178,VALID,0.965372
2000-03-12, 02:58:00,VALID,0,VALID,98.6078,VALID,-0.0169808,VALID,16.858,VALID,182,VALID,1.20092
2000-03-12, 02:59:01,VALID,0,VALID,98.5646,VALID,-0.0679233,VALID,16.8707,VALID,178,VALID,1.33442
2000-03-12, 03:00:00,VALID,0,VALID,98.5532,VALID,-0.0169808,VALID,16.8903,VALID,174,VALID,1.20847
2000-03-12, 03:01:00,VALID,0,VALID,98.5201,VALID,-0.0339617,VALID,16.8931,VALID,183,VALID,1.1655
2000-03-12, 03:02:00,VALID,0,VALID,98.44,VALID,-0.0169808,VALID,16.9224,VALID,178,VALID,0.854102
2000-03-12, 03:03:00,VALID,0,VALID,98.3713,VALID,-0.0339617,VALID,16.9254,VALID,188,VALID,0.844778
2000-03-12, 03:04:00,VALID,0,VALID,98.4781,VALID,-0.0509425,VALID,16.9643,VALID,185,VALID,1.06517
2000-03-12, 03:05:00,VALID,0,VALID,98.6117,VALID,0,VALID,17.0321,VALID,171,VALID,1.07148
2000-03-12, 03:06:00,VALID,0,VALID,98.0903,VALID,0,VALID,17.0384,VALID,151,VALID,0.858141
2000-03-12, 03:07:00,VALID,0,VALID,97.3108,VALID,-0.0339617,VALID,16.9547,VALID,144,VALID,0.998242
2000-03-12, 03:08:00,VALID,0,VALID,97.0336,VALID,0,VALID,16.9157,VALID,140,VALID,0.839021
2000-03-12, 03:09:00,VALID,0,VALID,96.3533,VALID,0,VALID,16.8415,VALID,141,VALID,0.621199
2000-03-12, 03:10:01,VALID,0,VALID,96.9916,VALID,-0.0509425,VALID,16.8191,VALID,147,VALID,0.809495
2000-03-12, 03:11:00,VALID,0,VALID,97.6948,VALID,-0.0679233,VALID,16.8451,VALID,161,VALID,0.91174
2000-03-12, 03:12:00,VALID,0,VALID,97.7699,VALID,-0.0169808,VALID,16.8839,VALID,163,VALID,0.826686
2000-03-12, 03:13:00,VALID,0,VALID,97.1468,VALID,-0.0169808,VALID,16.8092,VALID,162,VALID,0.596834
2000-03-12, 03:14:00,VALID,0,VALID,96.7399,VALID,-0.0339617,VALID,16.7447,VALID,162,VALID,0.443945
2000-03-12, 03:15:00,VALID,0,VALID,96.3698,VALID,-0.0339617,VALID,16.6577,VALID,161,VALID,0.417302
2000-03-12, 03:16:00,VALID,0,VALID,95.3029,VALID,-0.0679233,VALID,16.5155,VALID,146,VALID,0.519922
2000-03-12, 03:17:00,VALID,0,VALID,95.4098,VALID,0,VALID,16.3994,VALID,129,VALID,0.61951
2000-03-12, 03:18:00,VALID,0,VALID,96.5567,VALID,-0.0339617,VALID,16.3479,VALID,127,VALID,0.529848
2000-03-12, 03:19:00,VALID,0,VALID,97.574,VALID,-0.0679233,VALID,16.3963,VALID,142,VALID,0.413035
2000-03-12, 03:20:00,VALID,0,VALID,98.0229,VALID,-0.0339617,VALID,16.4679,VALID,151,VALID,0.25957
2000-03-12, 03:21:01,VALID,0,VALID,97.9492,VALID,-0.0509425,VALID,16.4613,VALID,151,VALID,0
2000-03-12, 03:22:00,VALID,0,VALID,97.8347,VALID,-0.0509425,VALID,16.4324,VALID,151,VALID,0
2000-03-12, 03:23:00,VALID,0,VALID,97.7762,VALID,-0.0849042,VALID,16.3834,VALID,151,VALID,0
2000-03-12, 03:24:00,VALID,0,VALID,97.7292,VALID,-0.0509425,VALID,16.3612,VALID,151,VALID,0
2000-03-12, 03:25:00,VALID,0,VALID,97.7037,VALID,-0.0339617,VALID,16.3288,VALID,151,VALID,0.619391
2000-03-12, 03:26:00,VALID,0,VALID,97.9568,VALID,-0.0509425,VALID,16.3322,VALID,151,VALID,0.702123
2000-03-12, 03:27:00,VALID,0,VALID,98.7007,VALID,-0.0849042,VALID,16.4155,VALID,154,VALID,0.768164
2000-03-12, 03:28:00,VALID,0,VALID,99.086,VALID,-0.0509425,VALID,16.5738,VALID,160,VALID,0.650965
2000-03-12, 03:29:00,VALID,0,VALID,99.2258,VALID,-0.0169808,VALID,16.7162,VALID,163,VALID,0.623766
2000-03-12, 03:30:01,VALID,0,VALID,99.0694,VALID,-0.0339617,VALID,16.764,VALID,166,VALID,0.420218
2000-03-12, 03:31:00,VALID,0,VALID,98.7655,VALID,-0.0339617,VALID,16.7193,VALID,166,VALID,0.460515
2000-03-12, 03:32:01,VALID,0,VALID,98.0916,VALID,-0.0849042,VALID,16.5286,VALID,153,VALID,0.604519
2000-03-12, 03:33:00,VALID,0,VALID,97.5791,VALID,-0.0339617,VALID,16.3994,VALID,137,VALID,0.815034
2000-03-12, 03:34:00,VALID,0,VALID,97.4532,VALID,-0.0509425,VALID,16.3382,VALID,121,VALID,1.1278
2000-03-12, 03:35:00,VALID,0,VALID,97.7355,VALID,-0.0509425,VALID,16.3284,VALID,118,VALID,1.14149
2000-03-12, 03:36:00,VALID,0,VALID,98.4464,VALID,-0.0169808,VALID,16.4514,VALID,126,VALID,1.21957
2000-03-12, 03:37:00,VALID,0,VALID,98.2798,VALID,0,VALID,16.474,VALID,125,VALID,1.11945
2000-03-12, 03:38:00,VALID,0,VALID,97.5219,VALID,-0.0169808,VALID,16.3606,VALID,114,VALID,0.713281
2000-03-12, 03:39:00,VALID,0,VALID,96.9815,VALID,0,VALID,16.2513,VALID,84,VALID,0.742599
2000-03-12, 03:40:00,VALID,0,VALID,97.8322,VALID,0,VALID,16.3253,VALID,57,VALID,0.85423
2000-03-12, 03:41:00,VALID,0,VALID,98.5888,VALID,0,VALID,16.522,VALID,45,VALID,0.806641
2000-03-12, 03:42:00,VALID,0,VALID,98.8088,VALID,0,VALID,16.645,VALID,20,VALID,0.445518
2000-03-12, 03:43:01,VALID,0,VALID,98.8787,VALID,-0.0679233,VALID,16.7221,VALID,27,VALID,0.0650391
2000-03-12, 03:44:00,VALID,0,VALID,98.2709,VALID,0.0849042,VALID,16.6208,VALID,102,VALID,0.453947
2000-03-12, 03:45:00,VALID,0,VALID,97.7279,VALID,0.0849042,VALID,16.527,VALID,112,VALID,0.578547
2000-03-12, 03:46:00,VALID,0,VALID,97.7432,VALID,0.0849042,VALID,16.5334,VALID,113,VALID,0.535657
2000-03-12, 03:47:00,VALID,0,VALID,97.6796,VALID,0.0849042,VALID,16.5435,VALID,113,VALID,0.0855152
2000-03-12, 03:48:00,VALID,0,VALID,97.6287,VALID,0.0849042,VALID,16.5308,VALID,113,VALID,0
2000-03-12, 03:49:00,VALID,0,VALID,97.5028,VALID,0.0679233,VALID,16.5181,VALID,113,VALID,0
2000-03-12, 03:50:00,VALID,0,VALID,97.3782,VALID,0.0849042,VALID,16.4923,VALID,113,VALID,0.144727
2000-03-12, 03:51:00,VALID,0,VALID,97.4863,VALID,0.0849042,VALID,16.4626,VALID,117,VALID,0.497713
2000-03-12, 03:52:00,VALID,0,VALID,97.7508,VALID,0.0849042,VALID,16.476,VALID,122,VALID,0.994727
2000-03-12, 03:53:00,VALID,0,VALID,97.9682,VALID,0.0849042,VALID,16.508,VALID,124,VALID,1.04265
2000-03-12, 03:54:00,VALID,0,VALID,98.1869,VALID,0.0509425,VALID,16.5788,VALID,135,VALID,0.804888
2000-03-12, 03:55:00,VALID,0,VALID,98.1984,VALID,0.0509425,VALID,16.676,VALID,139,VALID,0.581414
2000-03-12, 03:56:00,VALID,0,VALID,97.8245,VALID,0.0679233,VALID,16.7281,VALID,137,VALID,0.260156
2000-03-12, 03:57:00,VALID,0,VALID,97.087,VALID,0.0509425,VALID,16.718,VALID,146,VALID,0
2000-03-12, 03:58:00,VALID,0,VALID,96.4042,VALID,0.0849042,VALID,16.6821,VALID,200,VALID,0
2000-03-12, 03:59:00,VALID,0,VALID,95.8828,VALID,-0.0509425,VALID,16.6192,VALID,209,VALID,0
2000-03-12, 04:00:00,VALID,0,VALID,95.556,VALID,-0.0169808,VALID,16.5256,VALID,224,VALID,0
2000-03-12, 04:01:00,VALID,0,VALID,95.8968,VALID,0,VALID,16.4484,VALID,241,VALID,0
2000-03-12, 04:02:00,VALID,0,VALID,96.4538,VALID,-0.0339617,VALID,16.4028,VALID,240,VALID,0
2000-03-12, 04:03:00,VALID,0,VALID,96.9789,VALID,-0.0169808,VALID,16.3965,VALID,240,VALID,0
2000-03-12, 04:04:00,VALID,0,VALID,97.2294,VALID,0,VALID,16.4187,VALID,240,VALID,0
2000-03-12, 04:05:00,VALID,0,VALID,97.3032,VALID,-0.0509425,VALID,16.4318,VALID,240,VALID,0
2000-03-12, 04:06:00,VALID,0,VALID,97.6783,VALID,-0.0169808,VALID,16.4968,VALID,240,VALID,0
2000-03-12, 04:07:00,VALID,0,VALID,97.4621,VALID,0,VALID,16.5258,VALID,241,VALID,0
2000-03-12, 04:08:00,VALID,0,VALID,96.7335,VALID,-0.0169808,VALID,16.519,VALID,304,VALID,0.42462
2000-03-12, 04:09:00,VALID,0,VALID,97.4214,VALID,0,VALID,16.6838,VALID,323,VALID,1.23564